DELTA 1 DEB, 1529

Orbit data source: Space-Track

DELTA 1 DEB, 1529 is space debris in SSO originally from a launch on Fri, 02 Jul 1965 UTC launched from the Air Force Eastern Test Range (AFETR). Debris objects in space refer to the collection of defunct objects orbiting the Earth. Examples of debris include non-operational satellites, rocket bodies, and fragments generated from explosions, collisions, or faulty payload assembly.

Loading next visibility...
Identifier
1529, 1965-051D
Orbit
SSO
Country
Flag of USUS
Related business
Manufacturer
Unknown
Mission
Spacecraft
Bus & Motor
Unknown
Mass
1 kg wet, 1 kg dry
Launch date (UTC)
1965-07-02 (60 years ago)
Launch vehicle
Unknown
Launch site
Air Force Eastern Test Range (AFETR)
Object type
Payload
Rocket body
Debris
Shape & HBR
Unknown
Radar Cross Section
Small (<0.1 m²)

Expand to show TLE details & history
Last TLE update: 17 hours ago

TLE from 17 hours ago
0 DELTA 1 DEB
1 01529U 65051D   25291.23288514  .00000303  00000-0  15096-3 0  9996
2 01529  99.0141 160.0548 0035641 198.8606 161.1254 14.24128679121002
Epoch: 2025-10-18T05:35Z
TLE epoch observation values (Epoch: 2025-10-18T05:35:21.276Z)
Latitude
0.00002°
Longitude
49.2493°
Altitude
838.595 km
Speed
7.421 km/s
True Right ascension
10h 40m 13s
True Declination
0° 00' 00"
Sunlit
Object was in daylight at epoch
Visualization orbit readout
Latitude
Unknown
Longitude
Unknown
Altitude
Unknown
Speed
Unknown
Apparent Right ascension
Unknown
Apparent Declination
Unknown
Sunlit
N/A
Visualization observer readout
Local Sidereal Time
17:22:26
Azimuth
Unknown
Elevation
Unknown
Doppler factor
Unknown
Orbital elements
Apogee altitude
834.206 km
Perigee altitude
782.977 km
Semi-major axis
7,186.729 km
Eccentricity
0.00356
Inclination
99.0141°
RAAN
160.0548°
Arg. of periapsis
198.8606°
True anomaly
161.25697°
Mean anomaly
161.1254°
Eccentric anomaly
161.19124°
Mean motion
3.56243 °/min
Orbital period
101.05 mins
BSTAR
0.00015096
Loading maneuver chart data...
Computing Atmospheric mass density...
Loading historical data...
Loading historical data...
Loading historical data...
Loading historical data...
Loading historical data...
Loading historical data...
Loading historical data...
Other satellites on launch #51 in the year 1965 (1965-07-02 UTC)

Documentation

Showing up to 5 results
|